Location: Borz?cin
(51.1714°N, 19.6030°E)
Time: 07:55:13
(UTC+00:00)

Cosmos 44 Rocket - Pass Details

Date: 19 May 2025
Orbit: 651 x 728 km, 65.1° (Epoch: 16 June)

Event Time Altitude Azimuth Distance (km) Brightness Sun altitude
Rises 22:56:39 0° 319° (NW) 3,012 7.3 -18.7°
Reaches altitude 10° 22:59:04 10° 327° (NNW) 2,107 6.5 -18.7°
Maximum altitude 23:03:37 42° 39° (NE) 966 4.4 -18.6°
Drops below altitude 10° 23:08:15 10° 111° (ESE) 2,144 5.7 -18.5°
Sets 23:10:43 0° 118° (ESE) 3,071 6.4 -18.5°
